COSMOS 1275 DEB, 12708

Orbit data source: Space-Track

COSMOS 1275 DEB, 12708 is space debris in LEO originally from a launch on Thu, 04 Jun 1981 UTC launched from the Plesetsk Missile And Space Complex (PKMTR). Debris objects in space refer to the collection of defunct objects orbiting the Earth. Examples of debris include non-operational satellites, rocket bodies, and fragments generated from explosions, collisions, or faulty payload assembly.

Loading next visibility...
Identifier
12708, 1981-053BC
Orbit
LEO
Country
Flag of CISCIS
Related business
Manufacturer
Unknown
Mission
Spacecraft
Bus & Motor
Unknown
Mass
Unknown
Launch date (UTC)
1981-06-04 (45 years ago)
Launch vehicle
Unknown
Launch site
Plesetsk Missile And Space Complex (PKMTR)
Object type
Payload
Rocket body
Debris
Shape & HBR
Unknown shape, 0.2 m
Radar Cross Section
Small (<0.1 m²)

Expand to show TLE details & history
Last TLE update: 8 hours ago

TLE from 8 hours ago
0 COSMOS 1275 DEB
1 12708U 81053BC  26104.69547492  .00006575  00000-0  10520-2 0  9997
2 12708  82.8572  97.8726 0020969  29.7454 330.4942 14.71527834304552
Epoch: 2026-04-14T16:41Z
TLE epoch observation values (Epoch: 2026-04-14T16:41:29.033Z)
Latitude
-0.00005°
Longitude
4.63359°
Altitude
646.394 km
Speed
7.541 km/s
True Right ascension
06h 31m 29s
True Declination
0° 00' 00"
Sunlit
Object was in daylight at epoch
Visualization orbit readout
Latitude
Unknown
Longitude
Unknown
Altitude
Unknown
Speed
Unknown
Apparent Right ascension
Unknown
Apparent Declination
Unknown
Sunlit
N/A
Visualization observer readout
Local Sidereal Time
07:40:51
Azimuth
Unknown
Elevation
Unknown
Doppler factor
Unknown
Orbital elements
Apogee altitude
667.959 km
Perigee altitude
638.471 km
Semi-major axis
7,031.352 km
Eccentricity
0.0021
Inclination
82.8572°
RAAN
97.8726°
Arg. of periapsis
29.7454°
True anomaly
330.37559°
Mean anomaly
330.4942°
Eccentric anomaly
330.43492°
Mean motion
3.68116 °/min
Orbital period
97.8 mins
BSTAR
0.001052
Loading maneuver chart data...
Computing Atmospheric mass density...
Loading historical data...
Loading historical data...
Loading historical data...
Loading historical data...
Loading historical data...
Loading historical data...
Loading historical data...

Documentation

Showing up to 5 results
|